SCP
0 0 0 0 0 0 0 0 0 0 0 0 0 0 0 0 0 0 0 0 0 0 0 0 0 0 0 0 0 0 0 0 0 0 0 0 0 0 0 0 0 0 0 0
0 0 0 0 0 0 0 0 0 0 0 0 0 0 0 0 0 0 0 0 0 0 0 0 0 0 0 0 0 0 0 0 0 0 0 0 0 0 0 0 0 0 0 0
0 0 0 0 0 0 0 0 0 0 0 0 0 0 0 0 0 0 0 0 0 0 0 0 0 0 0 0 0 0 0 0 0 0 0 0 0 0 0 0 0 0 0 0
0 0 0 0 0 0 0 0 0 0 0 0 0 0 0 0 0 0 0 0 0 0 0 0 0 0 0 0 0 0 0 0 0 0 0 0 0 0 0 0 0 0 0 0
0 0 0 0 0 0 0 0 0 0 0 0 0 0 0 0 0 0 0 0 0 0 0 0 0 0 0 0 0 0 0 0 0 0 0 0 0 0 0 0 0 0 0 0
0 0 0 0 0 0 0 0 0 0 0 0 0 0 0 0 0 0 0 0 0 0 0 0 0 0 0 0 0 0 0 0 0 0 0 0 0 0 0 0 0 0 0 0
0 0 0 0 0 0 0 0 0 0 0 0 0 0 0 0 0 0 0 0 0 0 0 0 0 0 0 0 0 0 0 0 0 0 0 0 0 0 0 0 0 0 0 0
0 0 0 0 0 0 0 0 0 0 0 0 0 0 0 0 0 0 0 0 0 0 0 0 0 0 0 0 0 0 0 0 0 0 0 0 0 0 0 0 0 0 0 0
0 0 0 0 0 0 0 0 0 0 0 0 0 0 0 0 0 0 0 0 0 0 0 0 0 0 0 0 0 0 0 0 0 0 0 0 0 0 0 0 0 0 0 0
0 0 0 0 0 0 0 0 0 0 0 0 0 0 0 0 0 0 0 0 0 0 0 0 0 0 0 0 0 0 0 0 0 0 0 0 0 0 0 0 0 0 0 0
0 0 0 0 0 0 0 0 0 0 0 0 0 0 0 0 0 0 0 0 0 0 0 0 0 0 0 0 0 0 0 0 0 0 0 0 0 0 0 0 0 0 0 0
0 0 0 0 0 0 -0 -0 0 0 0 0 0 0 0 0 0 0 0 0 0 0 0 0 0 0 0 0 0 0 0 0 0 0 0 0 0 0 0 0 0 0 0 0
0 0 0 0 0 0 0 0 0 0 0 0 0 0 0 0 0 0 0 0 0 0 0 0 0 0 0 0 0 0 0 0 0 0 0 0 0 0 0 0 0 0 0 0
0 0 0 0 0 0 0 0 0 0 0 0 0 0 0 0 0 0 0 0 0 0 0 0 0 0 0 0 0 0 0 0 0 0 0 0 0 0 0 0 0 0 0 0
0 0 0 0 0 0 0 0 0 0 0 0 0 0 0 0 0 0 0 0 0 0 0 0 0 0 0 0 0 0 0 0 0 0 0 0 0 0 0 0 0 0 0 0
0 0 0 0 0 0 0 0 0 0 0 0 0 0 0 0 0 0 0 0 0 0 0 0 0 0 0 0 0 0 0 0 0 0 0 0 0 0 0 0 0 0 0 0
0 0 0 0 0 0 0 0 0 0 0 0 0 0 0 0 0 0 0 0 0 0 0 0 0 0 0 0 0 0 0 0 0 0 0 0 0 0 0 0 0 0 0 0
0 0 0 0 0 0 0 0 0 0 0 0 0 0 0 0 0 0 0 0 0 0 0 0 0 0 0 0 0 0 0 0 0 0 0 0 0 0 0 0 0 0 0 0
0 0 0 0 0 0 0 0 0 0 0 0 0 0 0 0 0 0 0 0 0 0 0 0 0 0 0 0 0 0 0 0 0 0 0 0 0 0 0 0 0 0 0 0
-0 0 0 0 0 0 0 0 0 0 0 0 0 0 0 0 0 0 0 0 0 0 0 0 0 0 0 0 0 0 0 0 0 0 0 0 0 0 0 0 0 0 0 0
0 0 0 0 0 0 0 0 0 0 0 0 0 0 0 0 0 0 0 0 0 0 0 0 0 0 0 0 0 0 0 0 0 0 0 0 0 0 0 0 0 0 0 0
0 0 0 0 0 0 0 0 0 0 0 0 0 0 0 0 0 0 0 0 0 0 0 0 0 0 0 0 0 0 0 0 0 0 0 0 0 0 0 0 0 0 0 0
0 0 0 0 0 0 0 0 0 0 0 0 0 0 0 0 0 0 0 0 0 0 0 0 0 0 0 0 0 0 0 0 0 0 0 -0 -0 0 0 0 0 0 0 0
0 0 0 0 0 0 0 0 0 0 0 0 0 0 0 0 0 0 0 0 0 0 0 0 0 0 0 0 0 0 0 0 0 0 0 0 -0 -0 0 0 0 0 0 0
0 0 0 0 0 0 0 0 0 0 0 0 0 0 0 0 0 0 0 0 0 0 0 0 0 0 0 0 0 0 0 0 0 0 0 0 0 0 0 0 0 0 0 0
0 0 0 0 0 0 0 0 0 0 0 0 0 0 0 0 0 0 0 0 0 0 0 0 0 0 0 0 0 0 0 0 0 0 0 0 0 0 0 0 0 0 0 0
Wind_Speed
1 3 3 6 7 6 4 4 4 6 5 5 5 6 6 7 7 7 7 7 7 7 6 5 6 5 5 5 6 5 4 3 3 2 2 2 1 1 2 2 2 2 2 3
3 3 8 6 4 4 3 2 3 3 3 5 4 6 5 9 10 11 10 9 9 7 5 4 4 4 5 5 5 4 4 4 3 2 2 2 2 1 1 1 2 3 3 2
6 7 5 3 3 3 2 3 4 3 1 0 1 3 3 4 6 7 8 8 9 10 10 7 6 5 5 5 5 5 4 4 3 3 3 3 3 2 2 2 2 2 2 2
4 5 3 2 3 4 4 4 4 3 2 3 2 3 6 5 5 7 7 8 9 9 9 8 8 6 6 6 5 5 5 4 3 4 4 4 3 2 1 0 1 2 2 2
3 3 2 3 5 5 5 3 2 2 3 1 1 3 7 3 5 8 8 9 9 9 10 10 9 8 7 6 6 5 5 4 3 4 4 5 3 2 1 1 2 2 2 2
4 3 3 5 4 3 2 3 4 5 4 2 5 4 6 5 9 8 9 9 9 9 9 8 7 6 5 5 5 5 5 4 3 4 4 4 4 3 3 2 1 1 1 2
4 4 2 1 1 2 5 6 4 4 3 5 3 3 8 7 8 10 12 10 9 9 9 8 8 7 6 6 5 5 6 4 4 4 4 4 4 5 4 3 2 1 0 1
1 5 3 2 4 3 3 7 6 4 4 5 2 4 6 4 4 6 7 8 9 9 9 9 9 8 7 7 6 6 6 5 4 4 4 3 4 3 3 3 2 2 1 1
4 4 3 2 2 6 3 3 5 5 2 2 4 4 5 2 3 5 7 8 8 9 9 9 8 7 7 7 7 7 7 5 5 5 4 4 3 3 3 3 2 2 1 1
5 3 3 2 2 1 4 5 5 3 2 2 4 3 4 4 4 5 7 8 8 8 8 8 7 7 6 6 5 5 6 6 5 5 4 4 3 3 3 3 2 2 1 1
3 3 3 1 3 4 2 2 3 3 4 4 2 6 5 7 7 8 8 8 8 8 8 7 6 5 5 5 5 5 5 5 5 5 4 4 3 3 3 3 3 2 2 1
2 5 2 5 4 4 5 5 6 4 3 4 3 7 4 4 6 7 8 7 7 8 7 7 6 5 4 4 4 5 5 5 5 4 4 4 3 3 3 3 2 2 2 1
3 5 1 4 5 2 1 2 4 5 4 4 4 7 3 0 2 4 6 7 6 7 6 6 6 5 5 5 4 4 4 5 4 4 4 3 3 4 4 3 3 2 2 2
4 4 6 7 6 4 3 3 3 5 4 4 6 6 4 2 3 4 5 6 7 7 7 7 5 5 5 4 4 4 4 4 4 4 4 4 4 4 4 3 3 3 2 2
4 2 3 6 6 4 5 6 5 6 7 8 8 7 7 6 6 6 6 6 7 6 7 7 6 5 4 4 4 4 4 4 4 4 4 4 4 3 3 3 3 3 2 2
2 2 1 3 4 3 4 5 5 6 6 6 5 6 6 4 3 4 6 7 7 7 7 7 6 5 5 5 4 4 4 4 4 4 4 4 4 4 3 3 3 2 2 2
1 2 1 4 4 2 5 6 6 5 5 7 8 8 4 3 5 6 6 7 8 7 7 7 7 6 6 5 5 5 5 4 4 4 3 4 4 3 3 3 3 3 3 2
4 3 2 1 1 5 7 3 5 5 4 4 4 4 5 6 4 3 4 6 6 6 7 6 6 5 4 4 4 4 4 4 4 4 3 3 4 3 3 3 3 3 2 2
5 5 3 2 3 6 6 4 2 3 3 2 4 4 4 5 5 2 0 4 5 6 5 5 5 5 4 4 4 5 4 3 3 3 3 4 4 4 3 3 3 3 2 2
2 3 3 3 3 6 6 4 2 3 3 3 4 6 6 6 4 4 3 2 3 4 4 4 4 4 4 3 4 4 4 3 3 4 4 3 4 5 5 5 4 3 2 3
1 1 2 4 5 7 6 4 2 3 6 3 4 5 7 6 6 5 4 3 3 3 3 4 4 4 3 3 4 4 3 3 3 2 2 2 2 3 4 4 3 2 2 2
4 3 3 3 4 7 4 1 3 6 2 2 3 4 5 4 4 4 5 4 4 3 3 3 3 2 2 3 4 4 3 3 2 2 2 1 1 1 2 2 2 2 3 2
4 6 5 6 6 4 2 2 3 2 2 2 3 3 6 5 4 4 4 4 3 3 3 3 3 2 1 2 4 4 3 2 2 2 2 1 1 0 1 2 2 2 2 2
3 1 2 3 4 3 3 2 2 0 1 1 2 4 6 5 5 4 4 3 3 2 3 3 3 2 1 1 2 3 3 3 3 3 2 1 1 1 0 1 2 2 2 2
4 1 2 4 5 4 3 2 2 2 2 2 2 2 4 6 5 5 4 3 3 2 2 3 3 3 3 2 2 2 3 3 3 2 2 2 2 2 1 1 1 2 3 4
5 5 5 7 6 4 5 4 2 1 1 2 2 1 2 4 5 4 4 3 3 2 2 2 2 2 2 2 2 2 3 4 4 2 2 2 2 2 2 1 0 1 2 3
Wind_Direction
68 86 217 224 208 200 201 203 224 230 213 176 206 221 208 187 179 179 179 175 180 184 185 170 158 151 139 134 134 140 139 135 127 112 107 98 77 49 44 43 50 64 69 72
39 245 233 223 217 209 205 200 235 269 216 178 207 234 213 189 192 188 184 183 183 175 162 158 150 144 144 148 146 137 132 136 136 139 149 135 126 102 80 43 39 46 58 61
198 237 236 221 211 202 218 193 211 218 315 304 142 289 236 216 201 193 186 181 179 173 169 165 156 151 144 149 155 150 146 142 135 126 106 86 67 51 41 35 23 14 49 66
224 244 236 225 228 191 235 225 204 179 130 256 169 251 259 218 204 201 193 181 179 173 167 167 165 161 160 161 151 144 143 139 135 130 127 127 126 129 174 160 36 8 28 53
244 231 212 220 228 195 216 223 193 182 164 286 260 188 273 207 207 210 200 188 181 175 169 169 171 172 167 154 148 149 141 135 135 132 134 133 128 132 121 83 66 37 17 33
241 241 199 209 222 205 169 66 39 51 74 292 239 184 260 216 207 198 198 191 179 173 168 166 166 158 153 148 147 148 144 148 145 131 131 139 140 133 118 101 89 47 16 18
308 295 264 189 125 19 86 84 36 3 12 254 243 190 246 239 206 188 186 184 175 169 165 164 161 162 162 161 160 155 150 155 157 140 141 150 150 148 151 157 154 139 74 360
221 285 261 200 167 180 169 137 154 194 224 273 307 226 258 274 198 174 166 161 159 163 166 168 170 170 170 169 164 157 157 162 164 154 154 150 151 155 160 166 164 171 188 216
180 254 270 209 167 149 141 165 171 148 205 264 277 284 311 16 109 142 149 156 165 169 170 170 168 170 171 171 169 165 162 161 164 162 154 148 150 151 157 163 154 163 181 183
164 226 285 298 64 74 153 151 98 120 170 257 287 266 242 224 198 171 167 173 174 169 168 168 170 172 170 171 168 159 159 163 160 156 163 158 161 160 154 144 147 157 167 148
149 165 295 352 185 201 153 140 129 144 166 163 246 269 238 204 192 179 179 176 170 167 169 170 170 169 163 156 157 158 159 155 159 163 161 154 163 160 151 154 167 168 157 142
149 133 227 258 264 208 171 173 148 161 223 172 178 267 290 205 184 171 171 170 166 165 163 164 162 154 154 158 160 167 168 165 172 170 160 159 160 156 155 165 173 162 154 151
129 119 90 333 329 349 170 184 167 151 142 164 177 259 316 63 150 157 161 161 160 157 153 149 146 154 163 167 168 173 175 177 174 163 158 158 162 166 173 177 173 161 152 143
117 129 170 199 217 216 227 229 189 151 172 207 215 234 272 246 188 172 168 166 163 159 156 154 159 169 172 172 174 174 180 177 170 163 166 174 182 182 184 179 174 169 160 151
96 166 224 233 234 222 222 225 213 199 196 201 225 221 236 223 207 189 171 160 156 158 160 164 168 172 175 174 180 179 178 173 168 166 177 190 185 174 165 164 172 166 163 166
82 175 276 280 262 243 255 245 225 226 216 214 221 240 240 215 171 162 168 165 165 171 172 170 167 166 174 178 179 173 174 177 165 171 185 178 164 164 167 173 169 162 166 165
153 143 142 275 300 341 268 237 218 217 211 193 213 226 208 167 170 181 182 177 176 175 171 170 171 175 181 184 177 177 177 165 161 170 176 172 170 173 183 179 165 171 182 179
168 156 163 245 342 243 248 247 209 206 235 214 191 187 184 175 164 162 167 170 175 173 171 173 174 177 179 173 167 163 156 157 163 172 182 185 175 178 182 175 186 193 185 182
180 166 161 160 234 270 288 279 203 179 264 246 180 168 154 132 88 16 221 164 169 168 168 176 177 170 165 166 164 149 150 156 164 182 193 195 186 181 177 183 197 196 183 186
122 132 146 164 206 241 257 275 247 123 270 263 174 165 159 135 138 230 224 153 139 138 144 146 145 141 149 164 155 150 164 165 188 202 202 197 187 184 190 198 199 195 184 192
60 74 171 198 228 259 264 282 82 161 241 237 176 170 167 175 190 185 161 144 139 135 136 134 133 145 168 163 148 157 170 197 208 196 184 189 192 198 201 196 190 180 177 169
186 182 203 183 213 255 286 58 187 224 235 172 167 170 166 160 137 140 143 141 135 121 119 135 141 154 169 161 155 167 199 210 176 148 151 188 219 219 190 177 185 173 168 167
201 195 195 198 218 257 280 227 244 172 155 181 170 168 150 141 149 152 149 146 143 141 145 149 146 147 161 162 160 174 208 178 150 142 163 193 196 180 165 170 173 164 165 171
271 201 183 256 273 292 301 324 341 53 147 182 159 148 143 144 151 147 146 142 140 138 145 141 135 143 190 200 175 182 189 164 149 158 182 185 165 157 136 166 171 171 183 189
242 218 220 255 277 303 304 312 315 349 32 76 90 134 152 144 147 155 154 153 152 147 151 145 153 171 202 205 195 191 175 156 154 170 188 185 177 173 171 178 193 193 203 199
231 217 219 238 240 228 256 269 239 191 202 169 139 133 151 152 156 153 155 157 149 145 137 138 154 172 202 199 196 199 184 166 164 178 189 183 178 177 171 165 310 275 237 227